Ogallala, NE

6:04 AM MDT on June 28, 2017 (GMT -0600)
Searle

Weather History for KOGA - March, 2013

Change the Weather History Date:

Monday, March 18, 2013

  Actual Average Record
Temperature  
Mean Temperature 36 °F -  
Max Temperature 47 °F 53 °F 83 °F (2012)
Min Temperature 24 °F 24 °F -3 °F (1965)
Degree Days  
Heating Degree Days 30    
Moisture  
Dew Point 17 °F    
Average Humidity 50    
Maximum Humidity 86    
Minimum Humidity 22    
Precipitation  
Precipitation 0.00 in - - ()
Sea Level Pressure  
Sea Level Pressure 29.90 in    
Wind  
Wind Speed 12 mph (NW)    
Max Wind Speed 24 mph    
Max Gust Speed 32 mph    
Visibility 10 miles    
Events      
Averages and records for this station are not official NWS values.
T = Trace of Precipitation, MM = Missing Value Source: NWS Daily Summary

Daily Weather History Graph

Daily Weather History Graph

Search for Another Location

Airport or City:

Trip Planner

Search our weather history database for the weather conditions in past years. The results will help you decide how hot, cold, wet, or windy it might be!

Date:

Astronomy

Mar. 18, 2013 Rise Set
Actual Time 6:53 AM MDT 6:57 PM MDT
Civil Twilight 6:25 AM MDT 7:24 PM MDT
Nautical Twilight 5:53 AM MDT 7:57 PM MDT
Astronomical Twilight 5:21 AM MDT 8:29 PM MDT
Moon 10:51 AM MDT (3/18) 1:01 AM MDT (3/18)
Length of Visible Light 12h 59m
Length of Day
12h 04m
Waxing Crescent, 41% of the Moon is Illuminated
Mar 18
Waxing Crescent
Mar 19
First Quarter
Mar 27
Full
Apr 2
Last Quarter
Apr 10
New

Hourly Weather History & Observations

Time (MDT) Temp. Windchill Dew Point Humidity Pressure Visibility Wind Dir Wind Speed Gust Speed Precip Events Conditions
12:15 AM 32.0 °F 24.8 °F 24.3 °F 73% 29.82 in 10.0 mi WNW 8.1 mph - N/A   Clear
12:35 AM 31.8 °F 23.9 °F 24.6 °F 75% 29.83 in 10.0 mi WNW 9.2 mph - N/A   Clear
12:55 AM 31.8 °F 23.9 °F 25.2 °F 76% 29.83 in 10.0 mi WNW 9.2 mph - N/A   Clear
1:15 AM 31.6 °F 21.6 °F 25.5 °F 78% 29.83 in 10.0 mi WNW 13.8 mph - N/A   Clear
1:35 AM 32.2 °F 21.1 °F 24.8 °F 74% 29.83 in 10.0 mi NW 17.3 mph - N/A   Clear
1:55 AM 32.4 °F 20.9 °F 23.9 °F 71% 29.84 in 10.0 mi WNW 18.4 mph 24.2 mph N/A   Clear
2:15 AM 32.0 °F 21.6 °F 23.9 °F 72% 29.85 in 10.0 mi WNW 15.0 mph - N/A   Clear
2:35 AM 32.0 °F 22.1 °F 23.5 °F 71% 29.85 in 10.0 mi WNW 13.8 mph - N/A   Clear
2:55 AM 30.0 °F 21.1 °F 23.5 °F 77% 29.85 in 10.0 mi WNW 10.4 mph - N/A   Clear
3:15 AM 30.9 °F 21.7 °F 23.7 °F 75% 29.84 in 10.0 mi NW 11.5 mph - N/A   Clear
3:35 AM 31.1 °F 20.5 °F 24.3 °F 76% 29.84 in 10.0 mi WNW 15.0 mph - N/A   Clear
3:55 AM 30.4 °F 20.0 °F 23.9 °F 77% 29.85 in 10.0 mi West 13.8 mph - N/A   Clear
4:15 AM 30.2 °F 19.3 °F 23.7 °F 77% 29.84 in 10.0 mi WNW 15.0 mph - N/A   Clear
4:35 AM 29.3 °F 18.2 °F 23.5 °F 79% 29.85 in 10.0 mi West 15.0 mph - N/A   Clear
4:55 AM 28.9 °F 19.2 °F 23.0 °F 78% 29.86 in 10.0 mi West 11.5 mph - N/A   Clear
5:15 AM 26.6 °F 19.1 °F 21.9 °F 82% 29.86 in 10.0 mi WNW 6.9 mph - N/A   Clear
5:35 AM 28.9 °F 21.1 °F 22.1 °F 76% 29.85 in 10.0 mi WNW 8.1 mph - N/A   Clear
5:55 AM 27.9 °F 24.0 °F 21.9 °F 78% 29.85 in 10.0 mi WNW 3.5 mph - N/A   Clear
6:15 AM 25.3 °F 18.5 °F 20.8 °F 83% 29.86 in 10.0 mi WSW 5.8 mph - N/A   Clear
6:35 AM 25.3 °F 18.5 °F 21.2 °F 84% 29.87 in 10.0 mi West 5.8 mph - N/A   Clear
6:55 AM 24.8 °F 16.9 °F 21.2 °F 86% 29.87 in 10.0 mi WSW 6.9 mph - N/A   Clear
7:15 AM 25.2 °F 16.5 °F 20.7 °F 83% 29.88 in 10.0 mi WSW 8.1 mph - N/A   Clear
7:35 AM 26.1 °F 18.4 °F 21.6 °F 83% 29.89 in 10.0 mi WSW 6.9 mph - N/A   Clear
7:55 AM 27.5 °F 19.3 °F 21.7 °F 79% 29.89 in 10.0 mi WSW 8.1 mph - N/A   Clear
8:15 AM 30.0 °F 21.7 °F 22.3 °F 73% 29.90 in 10.0 mi WSW 9.2 mph - N/A   Clear
8:35 AM 33.8 °F 23.5 °F 19.8 °F 56% 29.91 in 10.0 mi NW 16.1 mph - N/A   Clear
8:55 AM 35.2 °F 23.8 °F 18.0 °F 49% 29.91 in 10.0 mi NW 21.9 mph 26.5 mph N/A   Clear
9:15 AM 35.8 °F 26.1 °F 19.4 °F 51% 29.91 in 10.0 mi NW 16.1 mph 27.6 mph N/A   Clear
9:35 AM 35.8 °F 25.4 °F 20.1 °F 53% 29.92 in 10.0 mi NW 18.4 mph 26.5 mph N/A   Clear
9:55 AM 36.9 °F 27.1 °F 21.0 °F 53% 29.93 in 10.0 mi NW 17.3 mph - N/A   Clear
10:15 AM 37.8 °F 28.3 °F 21.6 °F 52% 29.94 in 10.0 mi NNW 17.3 mph - N/A   Clear
10:35 AM 38.5 °F 30.3 °F 21.6 °F 51% 29.94 in 10.0 mi NNW 13.8 mph 20.7 mph N/A   Clear
10:55 AM 40.3 °F 31.6 °F 20.5 °F 45% 29.94 in 10.0 mi NNW 17.3 mph 24.2 mph N/A   Clear
11:15 AM 41.0 °F 32.2 °F 18.3 °F 40% 29.95 in 10.0 mi NNW 18.4 mph 24.2 mph N/A   Clear
11:35 AM 42.8 °F 33.3 °F 16.9 °F 35% 29.94 in 10.0 mi NNW 24.2 mph 27.6 mph N/A   Clear
11:55 AM 42.4 °F 33.8 °F 16.2 °F 35% 29.94 in 10.0 mi NNW 19.6 mph 29.9 mph N/A   Scattered Clouds
12:15 PM 43.2 °F 35.0 °F 14.9 °F 32% 29.94 in 10.0 mi NW 18.4 mph 27.6 mph N/A   Scattered Clouds
12:35 PM 44.4 °F 35.9 °F 14.7 °F 30% 29.94 in 10.0 mi WNW 21.9 mph 29.9 mph N/A   Scattered Clouds
12:55 PM 45.3 °F 38.7 °F 13.5 °F 28% 29.93 in 10.0 mi NW 15.0 mph 32.2 mph N/A   Scattered Clouds
1:15 PM 46.2 °F 37.9 °F 12.7 °F 26% 29.93 in 10.0 mi NW 24.2 mph 31.1 mph N/A   Mostly Cloudy
1:35 PM 44.8 °F 37.1 °F 10.8 °F 25% 29.92 in 10.0 mi NNW 18.4 mph 32.2 mph N/A   Mostly Cloudy
1:55 PM 46.2 °F 38.7 °F 11.3 °F 24% 29.92 in 10.0 mi NNW 19.6 mph 25.3 mph N/A   Mostly Cloudy
2:15 PM 44.8 °F 36.9 °F 10.8 °F 25% 29.91 in 10.0 mi NW 19.6 mph 26.5 mph N/A   Scattered Clouds
2:35 PM 46.8 °F - 10.9 °F 24% 29.90 in 10.0 mi NNW 19.6 mph 24.2 mph N/A   Scattered Clouds
2:55 PM 46.9 °F - 10.0 °F 22% 29.89 in 10.0 mi NNW 18.4 mph 27.6 mph N/A   Scattered Clouds
3:15 PM 47.5 °F - 10.0 °F 22% 29.88 in 10.0 mi NNW 17.3 mph 24.2 mph N/A   Clear
3:35 PM 46.9 °F - 10.6 °F 23% 29.88 in 10.0 mi WNW 10.4 mph 21.9 mph N/A   Clear
3:55 PM 47.7 °F - 9.9 °F 22% 29.88 in 10.0 mi NNW 11.5 mph 18.4 mph N/A   Clear
4:15 PM 47.1 °F - 10.0 °F 22% 29.88 in 10.0 mi NNW 9.2 mph 19.6 mph N/A   Clear
4:35 PM 46.9 °F - 10.2 °F 23% 29.88 in 10.0 mi NNW 6.9 mph 16.1 mph N/A   Clear
4:55 PM 47.3 °F - 11.1 °F 23% 29.88 in 10.0 mi NW 10.4 mph - N/A   Clear
5:15 PM 46.4 °F 42.9 °F 10.9 °F 24% 29.88 in 10.0 mi North 6.9 mph - N/A   Clear
5:35 PM 45.5 °F 40.3 °F 11.7 °F 25% 29.88 in 10.0 mi NNW 10.4 mph - N/A   Clear
5:55 PM 44.1 °F 39.5 °F 11.8 °F 27% 29.88 in 10.0 mi North 8.1 mph - N/A   Scattered Clouds
6:15 PM 44.6 °F 40.2 °F 12.0 °F 27% 29.88 in 10.0 mi North 8.1 mph - N/A   Mostly Cloudy
6:35 PM 43.7 °F 39.7 °F 11.7 °F 27% 29.88 in 10.0 mi North 6.9 mph - N/A   Mostly Cloudy
6:55 PM 41.9 °F 38.2 °F 13.8 °F 32% 29.89 in 10.0 mi NNE 5.8 mph - N/A   Overcast
7:15 PM 40.6 °F - 17.2 °F 39% 29.90 in 10.0 mi Calm Calm - N/A   Overcast
7:35 PM 40.5 °F 36.5 °F 16.3 °F 38% 29.91 in 10.0 mi NE 5.8 mph - N/A   Overcast
7:55 PM 40.3 °F 36.3 °F 14.0 °F 34% 29.91 in 10.0 mi NE 5.8 mph - N/A   Overcast
8:15 PM 40.8 °F 35.6 °F 12.9 °F 32% 29.92 in 10.0 mi NNE 8.1 mph - N/A   Overcast
8:35 PM 40.3 °F 33.9 °F 11.8 °F 31% 29.94 in 10.0 mi NNE 10.4 mph - N/A   Overcast
8:55 PM 39.7 °F 31.2 °F 12.2 °F 32% 29.94 in 10.0 mi ENE 16.1 mph - N/A   Overcast
9:15 PM 37.4 °F 28.5 °F 13.8 °F 38% 29.96 in 10.0 mi East 15.0 mph - N/A   Overcast
9:55 PM 35.2 °F 26.6 °F 12.7 °F 40% 29.97 in 10.0 mi East 12.7 mph 16.1 mph N/A   Mostly Cloudy
10:15 PM 33.8 °F 26.4 °F 13.6 °F 44% 29.98 in 10.0 mi East 9.2 mph - N/A   Clear
10:35 PM 33.1 °F 26.9 °F 13.3 °F 44% 30.00 in 10.0 mi ESE 6.9 mph - N/A   Scattered Clouds
10:55 PM 32.9 °F 26.7 °F 14.4 °F 47% 30.01 in 10.0 mi East 6.9 mph - N/A   Overcast
11:15 PM 32.9 °F 28.5 °F 13.6 °F 45% 30.01 in 10.0 mi East 4.6 mph - N/A   Overcast
11:35 PM 32.4 °F 27.9 °F 14.2 °F 47% 30.01 in 10.0 mi East 4.6 mph - N/A   Overcast
11:55 PM 32.2 °F 26.7 °F 12.7 °F 45% 30.00 in 10.0 mi East 5.8 mph - N/A   Overcast